Regional Weather Roundup
Issued by NWS Bismarck, ND

Home | Current Version | Previous Version | Text Only | Print | Product List | Glossary On
Versions: 1 2 3 4 5 6 7 8 9 10 11 12 13 14 15 16 17 18 19 20 21 22 23 24 25 26 27 28 29 30 31 32 33 34 35 36 37 38 39 40 41 42 43 44 45 46 47 48 49 50
000
ASUS43 KBIS 100610
RWRBIS

NWR BROADCAST TEXT
NATIONAL WEATHER SERVICE BISMARCK ND
100 AM CDT THU JUL 10 2014

NOTE: "FAIR" INDICATES FEW OR NO CLOUDS BELOW 12,000 FEET WITH NO
SIGNIFICANT WEATHER AND/OR OBSTRUCTIONS TO VISIBILITY.


CITY           SKY/WX    TMP DP  RH WIND       PRES   REMARKS
WILLISTON      CLEAR     70  58  65 S6        29.83F
MINOT          CLEAR     63  58  83 SE7       29.89F
MINOT AFB      CLEAR     62  62  99 SE9       29.88F
BISMARCK       CLEAR     65  59  81 S10       29.95S
DICKINSON      CLEAR     63  56  78 S13       29.91F
GARRISON         N/A     64  60  87 SE7       29.91F
HETTINGER ARPT CLEAR     61  53  75 SE6       29.96S
JAMESTOWN      CLEAR     62  55  77 S6        29.97S
CARRINGTON     FAIR      59  59 100 SE8       29.97F
CROSBY           N/A     66  64  94 S15G22    29.83F
HARVEY         FAIR      61  57  88 SE8       29.94S
HAZEN          FAIR      64  57  77 S13       29.91F
LINTON         FAIR      63  59  88 SE12      29.97R
MANDAN         FAIR      64  59  82 S10       29.96S
RUGBY          FAIR      61  57  88 SE7       29.92F
STANLEY          N/A     63  63 100 S7        29.89F
TIOGA          FAIR      63  63 100 SE8       29.90F
WATFORD CITY   FAIR      66  57  72 SE9       29.84F
$$

CITY           SKY/WX    TMP DP  RH WIND       PRES   REMARKS
GRAND FORKS    CLEAR     60  52  74 SE6       29.96F
GRAND FORKS AF CLEAR     57  53  85 S5        29.97S
DEVILS LAKE    CLEAR     64  52  63 SE10      29.94S
FARGO          CLEAR     61  51  70 SE6       29.98
CANDO          FAIR      59  55  88 SE9       29.95S
CAVALIER       FAIR      59  54  82 S6        29.95F
GRAFTON        FAIR      57  52  82 SE3       29.96S
GWINNER        CLEAR     63  59  88 SE6       30.00S
LANGDON        FAIR      54  50  87 SE9       29.96S
ROLLA          CLOUDY    59  55  88 S8        29.95S
WALHALLA         N/A     59  55  88 CALM        N/A
$$

CITY           SKY/WX    TMP DP  RH WIND       PRES   REMARKS
ABERDEEN       CLEAR     58  54  86 SE5       29.98S
MOBRIDGE       CLEAR     64  57  78 SE8       29.95R
BUFFALO          N/A     62  55  77 SE14      29.89F
RAPID CITY     CLEAR     60  55  83 SE5       29.98S
GLASGOW        CLEAR     69  54  58 E13       29.73F
SIDNEY         CLEAR     68  55  64 S7        29.84F
WOLF POINT     CLEAR     71  54  54 SE3       29.76F
GLENDIVE       PTCLDY    72  54  53 S21       29.85S
MILES CITY     CLOUDY    75  54  47 SE12G21   29.82S
BAKER          PTCLDY    66  54  65 SE17      29.91S
$$

CITY           SKY/WX    TMP DP  RH WIND       PRES   REMARKS
BILLINGS       CLOUDY    79  49  34 NW8       29.87R
GREAT FALLS    MOCLDY    72  48  42 SW9       29.81F
REGINA         CLEAR     64  61  88 SE15G22   29.76F
ESTEVAN        PTCLDY    64  59  82 SE9       29.84F
$$




USA.gov is the U.S. government's official web portal to all federal, state and local government web resources and services.